Location: Kershaw
(34.5481°N, 80.5823°W)
Time: 16:52:24
(UTC+00:00)

Courier 1B Rocket - Pass Details

Date: 01 October 2022
Orbit: 920 x 1202 km, 28.2° (Epoch: 08 December)

Event Time Altitude Azimuth Distance (km) Brightness Sun altitude
Rises 03:41:20 0° 263° (W) 3,587 - -52.2°
Reaches altitude 10° 03:44:04 10° 257° (WSW) 2,623 - -52.5°
Maximum altitude 03:50:00 46° 186° (S) 1,210 - -53.3°
Drops below altitude 10° 03:55:56 10° 114° (ESE) 2,618 - -54.0°
Sets 03:58:40 0° 109° (ESE) 3,580 - -54.3°
